STARLINK-3089 (49166 NORAD) Tracking and Keplerian Element Data

This shows tracking and keplerian element data for the satellite.

Feedback or suggestion? Click here.




ElementValue
Catalog49166
NameSTARLINK-3089
Epoch Orbit619
Epoch Day288.25002315
Epoch Year2021
RAAN39.3191
Inclination70
Eccentricity0.0003483
Argument of Perigee283.287
Mean Anonmoly292.0739
Mean Motion15.69749207
Decay Rate-4.361E-05
L11 49166U 21082AN 21288.25002315 -.00004361 00000-0 -34775-4 0 9994
L22 49166 70.0000 39.3191 0003483 283.2870 292.0739 15.69749207 6197

Live tracking and technical data element details for STARLINK-3089 (NORAD 49166). STARLINK-3089 can be tracked NOW for your location showing map with azimuth and elevation plus other details from your city location.

Track the satellite on the map from your city or location and see movement details for azimuth, elevation, latitude, longitude, range, height, and movement on the map or in text.







IsCatalogInMostPopularTable: catalog: 49166, numindb: 5
Update: records affected: 1



GetName: 49166 STARLINK-3089

Hit Count: updated at: Sun, 17 Oct 2021 08:39:09 GMT